Skip Page Navigation
NASA JPL Caltech
NASA Logo - Jet Propulsion Laboratory + View the NASA Portal
+ Center for Near-Earth Object Studies
JPL Home Earth Solar System Stars & Galaxies Technology
JPL Solar System Dynamics
BODIES ORBITS EPHEMERIDES TOOLS PHYSICAL DATA DISCOVERY FAQ SITE MAP
JPL Small-Body Database Browser
Search: [ help ]  
150116 (1993 FE33)
Classification: Main-belt Asteroid          SPK-ID: 2150116
Ephemeris | Orbit Diagram | Orbital Elements | Mission Design | Physical Parameters | Discovery Circumstances ]

[ show orbit diagram ]
Orbital Elements at Epoch 2459200.5 (2020-Dec-17.0) TDB
Reference: JPL 21 (heliocentric ecliptic J2000)
 Element Value Uncertainty (1-sigma)   Units 
e .1744251313286943 3.942e-08  
a 2.335485874799743 1.1127e-08 au
q 1.928118444371487 9.1751e-08 au
i 2.575104168985551 4.3453e-06 deg
node 130.339328665778 0.00011174 deg
peri 111.3910607965212 0.00011257 deg
M 241.2886790880262 1.5027e-05 deg
tp 2459630.386622863632
(2022-Feb-19.88662286)
5.5459e-05 TDB
period 1303.659861940746
3.57
9.3162e-06
2.551e-08
d
yr
n .2761456500348728 1.9734e-09 deg/d
Q 2.742853305227999 1.3067e-08 au
  Orbit Determination Parameters
   # obs. used (total)      373  
   data-arc span      10199 days (27.92 yr)  
   first obs. used      1993-03-19  
   last obs. used      2021-02-19  
   planetary ephem.      DE441  
   SB-pert. ephem.      SB441-N16  
   condition code      0  
   norm. resid. RMS      .56027  
   source      ORB  
   producer      Otto Matic  
   solution date      2021-Apr-13 19:17:11  

Additional Information
 Earth MOID = .915735 au 
 Jupiter MOID = 2.2703 au 
 T_jup = 3.546 
[ show covariance matrix ]

Ephemeris | Orbit Diagram | Orbital Elements | Mission Design | Physical Parameters | Discovery Circumstances ]

Physical Parameter Table
Parameter Symbol Value Units Sigma Reference Notes
absolute magnitude H 17.0   n/a MPO439896  

150116 (1993 FE33)          Discovered 1993-Mar-19 by UESAC at La Silla
Reference: 20070303/Numbers.arcLast Updated: 2007-03-07

Alternate Designations
 1993 FE33 = 2000 EL3 
Ephemeris | Orbit Diagram | Orbital Elements | Mission Design | Physical Parameters | Discovery Circumstances ]
ABOUT SSD CREDITS/AWARDS PRIVACY/COPYRIGHT GLOSSARY LINKS
FirstGov 2021-Apr-18 15:49 UT
(server date/time)  
NASA Home Page
Site Manager:   Ryan S. Park
Webmaster  Alan B. Chamberlin